[[{"header":{"parameterUnit":"m.s-1","parameterCategory":1,"la1":30.2991,"la2":30.254,"lo1":-89.0895,"lo2":-89.0444,"dy":0.0017,"dx":0.0017,"nx":28,"ny":28,"refTime":"2025-09-07T21:00:00:Z","depth":0,"parameterNumber":2,"parameterNumberName":"U-component_of_WINDS"},"data":[0,0,0,0,0,0,0,0,0,0,0,0,0,0,0,0,0,0,0,0,0,0,0,0,0,0,0,0,0,0,0,0,0,0,0,0,0,0,0,0,0,0,0,0,0,0,0,0,0,0,0,0,0,0,0,0,0,0,-4.1294,-4.1294,0,-4.1283,-4.1283,-4.1283,-4.1178,-4.1175,-4.1173,-4.117,-4.1161,-4.1163,-4.1165,0,0,0,0,0,0,0,0,0,0,0,0,0,-4.1226,-4.1228,-4.1294,-4.1294,-4.1294,-4.1283,-4.1283,-4.1283,-4.1178,-4.1175,-4.1172,-4.1169,-4.116,-4.1163,-4.1166,0,0,0,0,0,0,0,0,0,0,0,0,0,-4.124,-4.1228,-4.1294,-4.124,-4.1235,-4.1283,-4.1283,-4.1283,-4.1179,-4.1175,-4.1171,-4.1167,-4.116,-4.1163,-4.1166,-4.1266,0,0,-4.1176,-4.1178,0,0,0,0,0,0,0,0,-4.1239,-4.1242,-4.1249,-4.1244,-4.1239,-4.1228,-4.1256,-4.1277,-4.118,-4.1201,-4.117,-4.1165,-4.1187,-4.1188,-4.1194,-4.1265,-4.1265,-4.1176,-4.1178,-4.118,-4.1181,0,0,0,0,0,0,0,-4.1238,-4.1242,-4.129,-4.1249,-4.1243,-4.1217,-4.1215,-4.1259,-4.1216,-4.1198,-4.1191,-4.1191,-4.1183,-4.1191,-4.1193,-4.1265,-4.1176,-4.1179,-4.1181,-4.1183,-4.1417,-4.1421,0,0,0,0,0,0,-4.1244,-4.1242,-4.129,-4.129,-4.1229,-4.1222,-4.1219,-4.1235,-4.1215,-4.1208,-4.1194,-4.1186,-4.1188,-4.1189,-4.1193,-4.1308,-4.118,-4.1183,-4.1185,-4.1413,-4.1418,-4.1423,0,0,0,0,0,0,-4.1243,-4.125,-4.1291,-4.1264,-4.1267,-4.1227,-4.1246,-4.1237,-4.1245,-4.1212,-4.1204,-4.121,-4.1185,-4.1188,-4.1248,-4.1306,-4.1185,-4.1188,-4.1408,-4.1415,-4.142,-4.154,0,0,0,0,0,0,-4.1242,-4.125,-4.1287,-4.1265,-4.1269,-4.1347,-4.125,-4.124,-4.1251,-4.124,-4.1225,-4.1219,-4.1182,-4.1244,-4.1252,-4.1309,-4.119,-4.1403,-4.1411,-4.1418,-4.1531,-4.155,-4.1566,0,0,0,0,0,-4.124,-4.1322,-4.1289,-4.1296,-4.1314,-4.135,-4.1352,-4.1307,-4.1256,-4.1293,-4.1272,-4.1219,-4.1299,-4.1251,-4.1259,-4.1318,-4.1399,-4.1409,-4.1418,-4.1523,-4.1546,-4.1566,0,0,0,0,0,0,-4.1352,-4.1318,-4.1282,-4.1359,-4.1358,-4.1332,-4.1378,-4.1333,-4.1347,-4.1337,-4.1281,-4.1279,-4.1348,-4.1338,-4.1286,-4.1413,-4.134,-4.1351,-4.1417,-4.1439,-4.1456,-4.1457,-4.1193,0,0,0,0,0,-4.1385,-4.1417,-4.1385,-4.1456,-4.1458,-4.1418,-4.1432,-4.1398,-4.1395,-4.1394,-4.1377,-4.1377,-4.1402,-4.142,-4.1441,-4.1529,-4.1525,-4.1573,-4.1591,-4.1606,-4.1617,-4.1663,-4.1685,-4.1454,-4.1454,-4.1454,0,0,-4.1455,-4.144,-4.1464,-4.1479,-4.1474,-4.1508,-4.1419,-4.1459,-4.1484,-4.14,-4.1456,-4.1444,-4.144,-4.1515,-4.1547,-4.151,-4.1679,-4.1618,-4.163,-4.1633,-4.1675,-4.1697,-4.1717,-4.1461,-4.1459,-4.1458,0,0,-4.16,-4.1592,-4.165,-4.1647,-4.1641,-4.1614,-4.1629,-4.1609,-4.1598,-4.1653,-4.1591,-4.1621,-4.1664,-4.1665,-4.167,-4.1816,-4.1768,-4.1824,-4.1917,-4.1963,-4.1981,-4.1997,-4.205,-4.2069,-4.1835,-4.1835,-4.1835,0,-4.1688,-4.1737,-4.1686,-4.173,-4.1739,-4.1664,-4.1724,-4.1723,-4.1725,-4.1733,-4.169,-4.1744,-4.1736,-4.1811,-4.1846,-4.1853,-4.1868,-4.1826,-4.1982,-4.1998,-4.2012,-4.2062,-4.2081,-4.1842,-4.1841,-4.1841,-4.184,0,-4.1845,-4.188,-4.1928,-4.1931,-4.1945,-4.1997,-4.1955,-4.1975,-4.1939,-4.1917,-4.1975,-4.1963,-4.198,-4.1995,-4.1961,-4.2065,-4.2042,-4.1992,-4.1917,-4.2042,-4.2087,-4.2106,-4.1852,-4.185,-4.1848,-4.1846,0,0,-4.2061,-4.2035,-4.2054,-4.2054,-4.2042,-4.2068,-4.2117,-4.2133,-4.2152,-4.2156,-4.2196,-4.2235,-4.2188,-4.2195,-4.216,-4.2201,-4.2318,-4.2145,-4.2144,-4.2179,-4.2433,-4.2471,-4.2494,-4.2285,-4.2289,-4.2292,-4.2433,0,-4.2201,-4.2282,-4.2238,-4.2325,-4.2357,-4.2287,-4.2329,-4.2327,-4.2307,-4.2332,-4.231,-4.2339,-4.2275,-4.2279,-4.2316,-4.2296,-4.2368,-4.2285,-4.2323,-4.2325,-4.2327,-4.2517,-4.2558,-4.2692,-4.2451,-4.2454,-4.2456,0,-4.2376,-4.2386,-4.2477,-4.2459,-4.247,-4.2509,-4.2521,-4.2545,-4.2541,-4.2524,-4.2532,-4.2488,-4.2535,-4.246,-4.2525,-4.2469,-4.2482,-4.2475,-4.2479,-4.2481,-4.2399,-4.2526,-4.2734,-4.2755,-4.2483,-4.2481,-4.2479,0,-4.2525,-4.2562,-4.2621,-4.2623,-4.2603,-4.2633,-4.2626,-4.2618,-4.2631,-4.2641,-4.2649,-4.2666,-4.2675,-4.2689,-4.265,-4.2599,-4.2721,-4.2643,-4.2709,-4.271,-4.2739,-4.2737,-4.2952,-4.2746,-4.2746,-4.2745,-4.2745,0,-4.2687,-4.2745,-4.2688,-4.2724,-4.2787,-4.2736,-4.2801,-4.2786,-4.278,-4.2813,-4.2753,-4.2785,-4.2732,-4.2759,-4.273,-4.2788,-4.2793,-4.2781,-4.2773,-4.2787,-4.2789,-4.2796,-4.2786,-4.2751,-4.2749,-4.2748,-4.2747,0,-4.2865,-4.2828,-4.2888,-4.2864,-4.286,-4.2908,-4.2888,-4.2921,-4.2897,-4.294,-4.2947,-4.291,-4.2939,-4.2902,-4.2928,-4.2907,-4.2988,-4.2965,-4.2989,-4.2983,-4.3052,-4.3047,-4.3279,-4.3308,-4.3083,-4.3085,-4.3087,0,-4.2971,-4.3014,-4.2995,-4.3012,-4.3009,-4.3038,-4.305,-4.3002,-4.3018,-4.3017,-4.305,-4.3074,-4.3091,-4.3141,-4.3117,-4.3137,-4.3114,-4.3195,-4.3117,-4.313,-4.3117,-4.3115,-4.3119,-4.3211,-4.3214,-4.3216,-4.3218,0,-4.3163,-4.3143,-4.3163,-4.3178,-4.3194,-4.3204,-4.3208,-4.3226,-4.3176,-4.3197,-4.3225,-4.3238,-4.3264,-4.3289,-4.3302,-4.3296,-4.325,-4.3242,-4.3259,-4.3274,-4.3287,-4.3282,-4.3034,-4.3237,-4.3235,-4.3234,-4.3233,-4.3232,-4.3309,-4.3344,-4.3336,-4.3361,-4.3359,-4.3365,-4.3395,-4.3375,-4.3398,-4.3415,-4.3385,-4.3421,-4.3417,-4.3429,-4.3428,-4.3457,-4.3422,-4.3446,-4.3452,-4.3459,-4.347,-4.3282,-4.3459,-4.3459,-4.3458,-4.3457,-4.3457,0,-4.3498,-4.349,-4.3513,-4.3521,-4.3541,-4.3494,-4.3497,-4.3517,-4.355,-4.3549,-4.3566,-4.36,-4.3623,-4.3602,-4.3621,-4.3649,-4.3628,-4.3656,-4.3654,-4.3653,-4.35,-4.3484,-4.3672,-4.3672,-4.3672,-4.3672,-4.3672,-4.3672,-4.36,-4.3657,-4.3636,-4.3692,-4.3683,-4.3718,-4.3724,-4.3729,-4.3728,-4.3768,-4.3787,-4.3772,-4.3763,-4.3782,-4.3802,-4.3795,-4.3806,-4.3842,-4.3828,-4.3685,-4.3664,-4.3644,-4.3628,-4.3844,-4.3844,-4.3978,-4.398,-4.3981]},{"header":{"parameterUnit":"m.s-1","parameterCategory":1,"la1":30.2991,"la2":30.254,"lo1":-89.0895,"lo2":-89.0444,"dy":0.0017,"dx":0.0017,"nx":28,"ny":28,"refTime":"2025-09-07T21:00:00:Z","depth":0,"parameterNumber":3,"parameterNumberName":"V-component_of_WINDS"},"data":[0,0,0,0,0,0,0,0,0,0,0,0,0,0,0,0,0,0,0,0,0,0,0,0,0,0,0,0,0,0,0,0,0,0,0,0,0,0,0,0,0,0,0,0,0,0,0,0,0,0,0,0,0,0,0,0,0,0,-2.021,-2.0211,0,-2.027,-2.0271,-2.0272,-2.027,-2.027,-2.0269,-2.0268,-2.0329,-2.0331,-2.0334,0,0,0,0,0,0,0,0,0,0,0,0,0,-2.0092,-2.0094,-2.021,-2.0211,-2.0211,-2.027,-2.0271,-2.0272,-2.0271,-2.027,-2.0269,-2.0268,-2.0328,-2.0331,-2.0334,0,0,0,0,0,0,0,0,0,0,0,0,0,-2.0147,-2.0095,-2.021,-2.0218,-2.0219,-2.027,-2.0271,-2.0272,-2.0271,-2.027,-2.0268,-2.0267,-2.0327,-2.0331,-2.0334,-2.0381,0,0,-2.0345,-2.0347,0,0,0,0,0,0,0,0,-2.0144,-2.0151,-2.0216,-2.0217,-2.0219,-2.0262,-2.0252,-2.0309,-2.0271,-2.0251,-2.0268,-2.0267,-2.0308,-2.0313,-2.0327,-2.0384,-2.0386,-2.0346,-2.0348,-2.0349,-2.035,0,0,0,0,0,0,0,-2.014,-2.0149,-2.0234,-2.0217,-2.0219,-2.0218,-2.0225,-2.0263,-2.0285,-2.0253,-2.0253,-2.026,-2.0308,-2.0323,-2.0328,-2.0387,-2.0345,-2.0349,-2.0351,-2.0352,-2.0486,-2.0487,0,0,0,0,0,0,-2.0135,-2.0146,-2.0232,-2.0236,-2.0178,-2.0221,-2.0228,-2.0249,-2.0285,-2.0289,-2.0261,-2.026,-2.0318,-2.0324,-2.033,-2.0388,-2.0349,-2.0353,-2.0355,-2.0484,-2.0486,-2.0488,0,0,0,0,0,0,-2.0132,-2.0142,-2.0229,-2.0191,-2.0202,-2.0225,-2.0248,-2.0251,-2.0266,-2.0291,-2.0295,-2.0272,-2.0317,-2.0325,-2.0368,-2.039,-2.0354,-2.0357,-2.0483,-2.0485,-2.0487,-2.0503,0,0,0,0,0,0,-2.0129,-2.0142,-2.016,-2.0191,-2.0204,-2.0267,-2.0249,-2.0253,-2.0272,-2.0271,-2.0303,-2.0307,-2.0317,-2.0363,-2.0372,-2.0394,-2.036,-2.0481,-2.0484,-2.0486,-2.05,-2.0505,-2.0509,0,0,0,0,0,-2.0125,-2.0161,-2.0161,-2.0171,-2.0227,-2.0268,-2.0275,-2.0286,-2.0274,-2.0293,-2.0309,-2.0306,-2.0386,-2.0368,-2.0378,-2.0401,-2.048,-2.0483,-2.0486,-2.0499,-2.0504,-2.0509,0,0,0,0,0,0,-2.0132,-2.0166,-2.0165,-2.0213,-2.0238,-2.0268,-2.0292,-2.0292,-2.032,-2.0318,-2.0329,-2.0336,-2.038,-2.0394,-2.0374,-2.0448,-2.0431,-2.0437,-2.0437,-2.0443,-2.0447,-2.0443,-2.0363,0,0,0,0,0,-2.0139,-2.017,-2.0198,-2.0237,-2.025,-2.0268,-2.0287,-2.0293,-2.0319,-2.0329,-2.0348,-2.0373,-2.0404,-2.0424,-2.0454,-2.0502,-2.0509,-2.0523,-2.0527,-2.0531,-2.0536,-2.0563,-2.057,-2.0498,-2.0498,-2.0498,0,0,-2.0154,-2.0176,-2.0195,-2.0239,-2.0259,-2.0291,-2.0277,-2.0311,-2.0335,-2.0334,-2.0377,-2.0391,-2.042,-2.0466,-2.0488,-2.048,-2.0557,-2.0535,-2.0537,-2.0541,-2.0567,-2.0574,-2.058,-2.05,-2.05,-2.0499,0,0,-2.0198,-2.0218,-2.0254,-2.0274,-2.0304,-2.0316,-2.0325,-2.0355,-2.0365,-2.0408,-2.0408,-2.0436,-2.0488,-2.0509,-2.0526,-2.0578,-2.0577,-2.0587,-2.061,-2.0637,-2.0642,-2.0648,-2.0667,-2.0674,-2.0591,-2.0591,-2.0591,0,-2.0213,-2.0262,-2.0272,-2.0306,-2.0326,-2.0327,-2.0363,-2.0382,-2.042,-2.0433,-2.0424,-2.049,-2.0509,-2.0561,-2.0574,-2.0587,-2.0597,-2.0584,-2.0641,-2.0646,-2.0651,-2.067,-2.0677,-2.0592,-2.0592,-2.0592,-2.0592,0,-2.0279,-2.0312,-2.0337,-2.0375,-2.0397,-2.0432,-2.0448,-2.0469,-2.0473,-2.0486,-2.0529,-2.0552,-2.0587,-2.0599,-2.0603,-2.0651,-2.0646,-2.0638,-2.0622,-2.0659,-2.0677,-2.0684,-2.0594,-2.0594,-2.0593,-2.0593,0,0,-2.033,-2.0373,-2.0382,-2.0399,-2.0433,-2.0459,-2.0493,-2.0528,-2.0546,-2.0572,-2.0602,-2.0646,-2.064,-2.0659,-2.0665,-2.0689,-2.0729,-2.0679,-2.0679,-2.0688,-2.0785,-2.0791,-2.0799,-2.0728,-2.0729,-2.0731,-2.0783,0,-2.0379,-2.0442,-2.0452,-2.0507,-2.0538,-2.0539,-2.057,-2.0593,-2.0606,-2.0634,-2.0648,-2.068,-2.0669,-2.0681,-2.0703,-2.0719,-2.0749,-2.0716,-2.0757,-2.0758,-2.0751,-2.0809,-2.0815,-2.0864,-2.079,-2.0791,-2.0792,0,-2.0444,-2.0473,-2.0531,-2.0561,-2.0574,-2.0602,-2.0634,-2.0661,-2.0687,-2.0695,-2.0717,-2.072,-2.0756,-2.0737,-2.0788,-2.0765,-2.0782,-2.0792,-2.0794,-2.08,-2.0778,-2.0817,-2.0879,-2.0887,-2.0803,-2.0802,-2.0801,0,-2.0477,-2.053,-2.0572,-2.0587,-2.0622,-2.0641,-2.0656,-2.0682,-2.0702,-2.073,-2.0743,-2.0774,-2.0792,-2.0816,-2.0828,-2.0813,-2.0878,-2.0859,-2.0886,-2.0886,-2.0901,-2.09,-2.0968,-2.0909,-2.0909,-2.0909,-2.0909,0,-2.0531,-2.0567,-2.0588,-2.0614,-2.0654,-2.0665,-2.0704,-2.0719,-2.0742,-2.077,-2.0772,-2.0799,-2.0812,-2.0841,-2.085,-2.0891,-2.0899,-2.0906,-2.0909,-2.0907,-2.0906,-2.092,-2.0917,-2.0911,-2.0911,-2.091,-2.091,0,-2.0576,-2.059,-2.0637,-2.0666,-2.0674,-2.0703,-2.0728,-2.0753,-2.0765,-2.0802,-2.0811,-2.0831,-2.0865,-2.0879,-2.092,-2.0926,-2.0974,-2.0973,-2.0965,-2.0966,-2.0992,-2.099,-2.1073,-2.1085,-2.1016,-2.1017,-2.1018,0,-2.061,-2.0638,-2.067,-2.069,-2.0706,-2.0738,-2.0758,-2.077,-2.0791,-2.0823,-2.0845,-2.0879,-2.0907,-2.0961,-2.0979,-2.1011,-2.1012,-2.1038,-2.1017,-2.1014,-2.1014,-2.1012,-2.1016,-2.1043,-2.1044,-2.1044,-2.1045,0,-2.0669,-2.0675,-2.0705,-2.0738,-2.0762,-2.0788,-2.0814,-2.0829,-2.0845,-2.0868,-2.0904,-2.0925,-2.0968,-2.1002,-2.1035,-2.1051,-2.1051,-2.1051,-2.1059,-2.1059,-2.1054,-2.1058,-2.0978,-2.1049,-2.1049,-2.1049,-2.1048,-2.1048,-2.071,-2.0736,-2.0763,-2.0796,-2.0816,-2.084,-2.0865,-2.0881,-2.0911,-2.0947,-2.0951,-2.0989,-2.1015,-2.1059,-2.1076,-2.1106,-2.1099,-2.111,-2.1114,-2.1117,-2.1119,-2.1048,-2.1112,-2.1112,-2.1112,-2.1111,-2.1111,0,-2.0771,-2.0788,-2.0819,-2.0855,-2.0881,-2.0878,-2.0906,-2.0928,-2.0962,-2.0986,-2.1013,-2.1054,-2.1087,-2.1107,-2.1141,-2.1161,-2.1162,-2.1169,-2.1169,-2.1172,-2.1123,-2.1113,-2.1168,-2.1168,-2.1168,-2.1168,-2.1168,-2.1168,-2.0806,-2.0849,-2.0858,-2.091,-2.0927,-2.0965,-2.0981,-2.1003,-2.1023,-2.1068,-2.1096,-2.1109,-2.1132,-2.1167,-2.1197,-2.1202,-2.1215,-2.1223,-2.1228,-2.1182,-2.1176,-2.117,-2.1161,-2.1226,-2.1226,-2.1276,-2.1276,-2.1276]}]]